Weather History for Ellensburg, WA

Change the Weather History Date:

Thursday, April 18, 2013

  Actual Average (KYKM) Record (KYKM)
Temperature  
Mean Temperature 51 °F 49 °F  
Max Temperature 61 °F 64 °F 84 °F (1952)
Min Temperature 42 °F 35 °F 23 °F (1964)
Degree Days  
Heating Degree Days 14 16  
Month to date heating degree days 308  
Since 1 July heating degree days 5512  
Cooling Degree Days 0 0  
Month to date cooling degree days 0  
Year to date cooling degree days 0  
Growing Degree Days 1 (Base 50)    
Moisture  
Dew Point 35 °F    
Average Humidity 55    
Maximum Humidity 71    
Minimum Humidity 42    
Precipitation  
Precipitation 0.00 in 0.02 in 0.43 in (1984)
Month to date precipitation 0.31  
Year to date precipitation 2.85  
Snow  
Snow 0.00 in 0.00 in 0.00 in (2002)
Month to date snowfall 0.0  
Year to date snowfall 8.6  
Since 1 July snowfall 21.6  
Snow Depth -    
Sea Level Pressure  
Sea Level Pressure 30.29 in    
Wind  
Wind Speed 17 mph (NW)    
Max Wind Speed 26 mph    
Max Gust Speed 34 mph    
Visibility 10 miles    
Events      
T = Trace of Precipitation, MM = Missing Value Source: NWS Daily Summary

Daily Weather History Graph

Daily Weather History Graph

Search for Another Location

Airport:

Trip Planner

Search our weather history database for the weather conditions in past years. The results will help you decide how hot, cold, wet, or windy it might be!

Date:

Astronomy

Apr. 18, 2013 Rise Set
Actual Time 6:08 AM PDT 7:55 PM PDT
Civil Twilight 5:35 AM PDT 8:27 PM PDT
Nautical Twilight 4:56 AM PDT 9:07 PM PDT
Astronomical Twilight 4:13 AM PDT 9:51 PM PDT
Moon 12:21 PM PDT (4/18) 2:17 AM PDT (4/18)
Length of Visible Light 14h 52m
Length of Day
13h 47m
First Quarter, 53% of the Moon is Illuminated
Apr 18
First Quarter
Apr 25
Full
May 2
Last Quarter
May 9
New
May 17
First Quarter

Hourly Weather History & Observations

Time (PDT) Temp. Windchill Dew Point Humidity Pressure Visibility Wind Dir Wind Speed Gust Speed Precip Events Conditions
12:53 AM 42.1 °F 35.2 °F 33.1 °F 70% 30.34 in 10.0 mi NW 12.7 mph - N/A   Clear
1:53 AM 43.0 °F 36.8 °F 32.0 °F 65% 30.34 in 10.0 mi NW 11.5 mph - N/A   Clear
2:53 AM 44.1 °F 37.4 °F 30.9 °F 60% 30.34 in 10.0 mi WNW 13.8 mph - N/A   Overcast
3:53 AM 44.1 °F 36.2 °F 30.9 °F 60% 30.33 in 10.0 mi WNW 18.4 mph 26.5 mph N/A   Overcast
4:53 AM 44.1 °F 36.5 °F 30.9 °F 60% 30.34 in 10.0 mi WNW 17.3 mph 23.0 mph N/A   Overcast
5:53 AM 44.1 °F 37.1 °F 30.0 °F 58% 30.33 in 10.0 mi WNW 15.0 mph - N/A   Overcast
6:53 AM 43.0 °F 35.4 °F 30.9 °F 62% 30.34 in 10.0 mi WNW 16.1 mph - N/A   Overcast
7:53 AM 46.0 °F 38.5 °F 32.0 °F 58% 30.34 in 10.0 mi NW 19.6 mph 26.5 mph N/A   Mostly Cloudy
8:53 AM 46.9 °F - 32.0 °F 56% 30.35 in 10.0 mi NW 19.6 mph 26.5 mph N/A   Overcast
9:53 AM 52.0 °F - 34.0 °F 50% 30.33 in 10.0 mi NW 23.0 mph 28.8 mph N/A   Mostly Cloudy
10:53 AM 55.0 °F - 34.0 °F 45% 30.32 in 10.0 mi NW 23.0 mph 29.9 mph N/A   Partly Cloudy
11:53 AM 57.0 °F - 36.0 °F 45% 30.32 in 10.0 mi NW 24.2 mph 29.9 mph N/A   Mostly Cloudy
12:17 PM 59.0 °F - 37.4 °F 45% 30.29 in 1.8 mi NW 25.3 mph 31.1 mph N/A   Haze
12:32 PM 57.2 °F - 35.6 °F 44% 30.28 in 10.0 mi NW 21.9 mph - N/A   Clear
12:53 PM 59.0 °F - 36.0 °F 42% 30.29 in 10.0 mi WNW 25.3 mph 32.2 mph N/A   Clear
1:53 PM 60.1 °F - 37.0 °F 42% 30.28 in 10.0 mi NW 26.5 mph 34.5 mph N/A   Clear
2:53 PM 57.9 °F - 37.0 °F 46% 30.27 in 10.0 mi NW 23.0 mph 29.9 mph N/A   Partly Cloudy
3:53 PM 55.9 °F - 37.0 °F 49% 30.27 in 10.0 mi NW 23.0 mph 32.2 mph N/A   Mostly Cloudy
4:53 PM 55.0 °F - 37.0 °F 51% 30.25 in 10.0 mi NW 20.7 mph 28.8 mph N/A   Overcast
5:53 PM 54.0 °F - 37.0 °F 53% 30.25 in 10.0 mi NW 9.2 mph - N/A   Overcast
6:53 PM 52.0 °F - 37.0 °F 57% 30.24 in 10.0 mi NW 20.7 mph - N/A   Mostly Cloudy
7:53 PM 51.1 °F - 37.0 °F 59% 30.22 in 10.0 mi NW 20.7 mph 27.6 mph N/A   Partly Cloudy
8:53 PM 50.0 °F - 36.0 °F 59% 30.23 in 10.0 mi NW 18.4 mph - N/A   Partly Cloudy
9:53 PM 46.9 °F - 36.0 °F 66% 30.22 in 10.0 mi NW 13.8 mph - N/A   Clear
10:53 PM 46.0 °F 40.6 °F 37.0 °F 71% 30.20 in 10.0 mi WNW 11.5 mph - N/A   Overcast
11:53 PM 46.9 °F - 37.0 °F 68% 30.17 in 10.0 mi WNW 13.8 mph - N/A   Clear